Weather History for Pendleton, OR

Change the Weather History Date:

Monday, December 17, 2012

  Actual Average Record
Temperature  
Mean Temperature 43 °F 32 °F  
Max Temperature 48 °F 39 °F 62 °F (1917)
Min Temperature 38 °F 26 °F -12 °F (1964)
Degree Days  
Heating Degree Days 22 33  
Month to date heating degree days 400 529  
Since 1 July heating degree days 1545 1782  
Cooling Degree Days 0 0  
Month to date cooling degree days 0 0  
Year to date cooling degree days 611 636  
Moisture  
Dew Point 29 °F    
Average Humidity 60    
Maximum Humidity 70    
Minimum Humidity 49    
Precipitation  
Precipitation 0.00 in 0.04 in 0.91 in (1915)
Month to date precipitation 0.95 0.81  
Year to date precipitation 14.20 12.00  
Snow  
Snow 0.00 in 0.20 in 2.80 in (1984)
Month to date snowfall 0.4 3.0  
Year to date snowfall 6.3 12.2  
Since 1 July snowfall 0.4 4.5  
Snow Depth 0.00 in    
Sea Level Pressure  
Sea Level Pressure 29.60 in    
Wind  
Wind Speed 28 mph (SW)    
Max Wind Speed 44 mph    
Max Gust Speed 54 mph    
Visibility 10 miles    
Events      
T = Trace of Precipitation, MM = Missing Value Source: NWS Daily Summary

Daily Weather History Graph

Daily Weather History Graph

Search for Another Location

Airport:

Trip Planner

Search our weather history database for the weather conditions in past years. The results will help you decide how hot, cold, wet, or windy it might be!

Date:

Astronomy

Dec. 17, 2012 Rise Set
Actual Time 7:31 AM PST 4:12 PM PST
Civil Twilight 6:56 AM PST 4:46 PM PST
Nautical Twilight 6:18 AM PST 5:24 PM PST
Astronomical Twilight 5:42 AM PST 6:00 PM PST
Moon 10:29 AM PST (12/17) 9:54 PM PST (12/17)
Length of Visible Light 9h 50m
Length of Day
8h 41m
Waxing Crescent, 26% of the Moon is Illuminated
Dec 17
Waxing Crescent
Dec 19
First Quarter
Dec 28
Full
Jan 4
Last Quarter
Jan 11
New

Hourly Weather History & Observations

Time (PST) Temp. Windchill Dew Point Humidity Pressure Visibility Wind Dir Wind Speed Gust Speed Precip Events Conditions
12:53 AM 46.0 °F 39.6 °F 35.1 °F 66% 29.23 in 10.0 mi SW 15.0 mph - N/A   Clear
1:53 AM 45.0 °F 41.2 °F 35.1 °F 68% 29.23 in 10.0 mi South 6.9 mph - N/A   Clear
2:53 AM 46.9 °F - 34.0 °F 61% 29.27 in 10.0 mi SW 21.9 mph 26.5 mph N/A   Overcast
3:53 AM 46.0 °F 37.6 °F 33.1 °F 61% 29.26 in 10.0 mi SW 24.2 mph 36.8 mph N/A   Clear
4:53 AM 46.0 °F 37.2 °F 30.0 °F 54% 29.30 in 10.0 mi SW 26.5 mph 39.1 mph N/A   Clear
5:53 AM 45.0 °F 36.6 °F 30.0 °F 56% 29.37 in 10.0 mi WSW 21.9 mph 38.0 mph N/A   Clear
6:53 AM 44.1 °F 32.7 °F 30.0 °F 58% 29.40 in 10.0 mi SW 39.1 mph 43.7 mph N/A   Clear
7:53 AM 43.0 °F 33.3 °F 30.0 °F 60% 29.44 in 10.0 mi SW 25.3 mph 41.4 mph N/A   Clear
8:53 AM 44.1 °F 33.3 °F 30.0 °F 58% 29.50 in 10.0 mi WSW 34.5 mph 47.2 mph N/A   Overcast
9:53 AM 43.0 °F 32.0 °F 30.9 °F 62% 29.55 in 10.0 mi WSW 33.4 mph 42.6 mph N/A   Clear
10:53 AM 44.1 °F 33.5 °F 30.9 °F 60% 29.59 in 10.0 mi WSW 33.4 mph 43.7 mph N/A   Clear
11:53 AM 44.1 °F 32.7 °F 30.0 °F 58% 29.61 in 10.0 mi WSW 39.1 mph 49.5 mph N/A   Clear
12:53 PM 44.1 °F 33.3 °F 28.0 °F 53% 29.65 in 10.0 mi WSW 34.5 mph 46.0 mph N/A   Scattered Clouds
1:53 PM 44.1 °F 34.0 °F 27.0 °F 51% 29.67 in 10.0 mi WSW 29.9 mph 39.1 mph N/A   Partly Cloudy
4:53 PM 37.0 °F 25.6 °F 25.0 °F 62% 29.79 in 10.0 mi West 24.2 mph 31.1 mph N/A   Partly Cloudy
5:53 PM 33.1 °F 21.9 °F 28.9 °F 85% 29.83 in 10.0 mi West 18.4 mph - N/A   Partly Cloudy
6:53 PM 32.0 °F - 28.0 °F 85% 29.86 in 10.0 mi Calm Calm - N/A   Clear
7:53 PM 34.0 °F 26.0 °F 26.1 °F 73% 29.88 in 10.0 mi WSW 10.4 mph - N/A   Mostly Cloudy
8:53 PM 35.1 °F 25.9 °F 24.1 °F 64% 29.89 in 10.0 mi SSW 13.8 mph - N/A   Mostly Cloudy
9:53 PM 33.1 °F 23.0 °F 21.9 °F 64% 29.90 in 10.0 mi WSW 15.0 mph - N/A   Mostly Cloudy
10:53 PM 30.9 °F 22.8 °F 21.0 °F 67% 29.92 in 10.0 mi South 9.2 mph - N/A   Clear
11:53 PM 30.9 °F 22.2 °F 19.9 °F 64% 29.92 in 10.0 mi South 10.4 mph - N/A   Clear